This is the latest recevied weather packets stored in our database for station/object KD2PO-13. If no packets are shown the sender has not sent any weather packets the latest 10 day(s).
| Time | Temp. | Humidity | Pressure | Rain* | Wind** | Luminosity | Snow |
|---|---|---|---|---|---|---|---|
| 1777828345 | 10° C | 47% | 0 hPa | 0 mm | - | - | - |
| 1777828045 | 10° C | 45% | 0 hPa | 0 mm | - | - | - |
| 1777827445 | 10° C | 46% | 0 hPa | 0 mm | - | - | - |
| 1777827145 | 9.44° C | 49% | 0 hPa | 0 mm | - | - | - |
| 1777826845 | 9.44° C | 50% | 0 hPa | 0 mm | - | - | - |
| 1777826544 | 8.89° C | 50% | 0 hPa | 0 mm | - | - | - |
| 1777825945 | 9.44° C | 47% | 0 hPa | 0 mm | - | - | - |
| 1777825645 | 8.89° C | 49% | 0 hPa | 0 mm | - | - | - |
| 1777825345 | 8.89° C | 48% | 0 hPa | 0 mm | - | - | - |
| 1777825045 | 8.89° C | 49% | 0 hPa | 0 mm | - | - | - |
| 1777824745 | 8.89° C | 46% | 0 hPa | 0 mm | - | - | - |
| 1777824445 | 8.89° C | 53% | 0 hPa | 0 mm | - | - | - |
| 1777824145 | 8.33° C | 48% | 0 hPa | 0 mm | - | - | - |
| 1777823845 | 8.89° C | 48% | 0 hPa | 0 mm | - | - | - |
| 1777823244 | 8.89° C | 53% | 0 hPa | 0 mm | - | - | - |
| 1777823244 | - | - | - | - | - | - | - |
| 1777822944 | 8.33° C | 52% | 0 hPa | 0 mm | - | - | - |
| 1777822645 | 8.33° C | 48% | 0 hPa | 0 mm | - | - | - |
| 1777822346 | 7.78° C | 49% | 0 hPa | 0 mm | - | - | - |
| 1777822045 | 7.78° C | 49% | 0 hPa | 0 mm | - | - | - |
| 1777821745 | 7.78° C | 49% | 0 hPa | 0 mm | - | - | - |
| 1777821445 | 7.78° C | 51% | 0 hPa | 0 mm | - | - | - |
| 1777821145 | 7.22° C | 49% | 0 hPa | 0 mm | - | - | - |
| 1777820846 | 7.78° C | 48% | 0 hPa | 0 mm | - | - | - |
| 1777820846 | 7.78° C | - | - | 0 mm | - | - | - |
* Rain latest hour (hover to see other rain measurements)
** Current wind speed in m/s (hover to see current wind gust speed)